Chezy-en-Orxois, France

1:12 AM CET on March 24, 2019 (GMT +0100)
Chezy-en-Orxois

Weather History for 07157 - June, 2004

Change the Weather History Date:

Friday, June 25, 2004

  Actual Average Record
Temperature  
Mean Temperature 60 °F -  
Max Temperature 71 °F 74 °F - ()
Min Temperature 50 °F 56 °F - ()
Degree Days  
Heating Degree Days 4    
Growing Degree Days 10 (Base 50)    
Moisture  
Dew Point 44 °F    
Average Humidity 57    
Maximum Humidity 87    
Minimum Humidity 31    
Precipitation  
Precipitation 0.00 in - - ()
Sea Level Pressure  
Sea Level Pressure 30.09 in    
Wind  
Wind Speed 7 mph ()    
Max Wind Speed 10 mph    
Max Gust Speed -    
Visibility 6.2 miles    
Events      
T = Trace of Precipitation, MM = Missing Value Source: Averaged Metar Reports

Daily Weather History Graph

Daily Weather History Graph

Search for Another Location

Airport or City:

Astronomy

Jun. 25, 2004 Rise Set
Actual Time 5:46 AM CEST 9:58 PM CEST
Civil Twilight 5:03 AM CEST 10:41 PM CEST
Nautical Twilight 4:02 AM CEST 11:42 PM CEST
Astronomical Twilight 2:24 AM CEST 1:20 AM CEST
Moon 1:27 PM CEST (6/25) 1:45 AM CEST (6/25)
Length of Visible Light 17h 37m
Length of Day
16h 11m
Waxing Crescent, 46% of the Moon is Illuminated
Jun 25
Waxing Crescent
Jun 25
First Quarter
Jul 2
Full
Jul 9
Last Quarter
Jul 17
New

Hourly Weather History & Observations

Time (CEST) Temp. Dew Point Humidity Pressure Visibility Wind Dir Wind Speed Gust Speed Precip Events Conditions
12:00 AM 57.2 °F 42.8 °F 59% 30.01 in 6.2 mi West 6.9 mph - N/A   Scattered Clouds
12:30 AM 55.4 °F 44.6 °F 67% 30.01 in 6.2 mi WNW 5.8 mph - N/A   Scattered Clouds
1:00 AM 55.4 °F 44.6 °F 67% 30.01 in - West 5.8 mph - N/A   Clear
1:30 AM 55.4 °F 42.8 °F 63% 30.01 in - West 8.1 mph - N/A   Clear
2:00 AM 55.4 °F 44.6 °F 67% 30.01 in - West 9.2 mph - N/A   Clear
2:30 AM 53.6 °F 44.6 °F 72% 30.01 in - West 8.1 mph - N/A   Clear
3:00 AM 53.6 °F 44.6 °F 72% 30.04 in - West 8.1 mph - N/A   Clear
3:30 AM 53.6 °F 44.6 °F 72% 30.01 in - West 8.1 mph - N/A   Clear
4:00 AM 51.8 °F 44.6 °F 76% 30.04 in - West 8.1 mph - N/A   Clear
4:30 AM 51.8 °F 44.6 °F 76% 30.04 in - West 8.1 mph - N/A   Clear
5:00 AM 50.0 °F 46.4 °F 87% 30.04 in - West 6.9 mph - N/A   Clear
5:30 AM 50.0 °F 44.6 °F 82% 30.04 in - West 6.9 mph - N/A   Clear
6:00 AM 50.0 °F 46.4 °F 87% 30.04 in - WSW 5.8 mph - N/A   Clear
6:30 AM 50.0 °F 46.4 °F 87% 30.04 in - West 6.9 mph - N/A   Clear
7:00 AM 51.8 °F 46.4 °F 82% 30.06 in - WSW 6.9 mph - N/A   Clear
7:30 AM 51.8 °F 46.4 °F 82% 30.06 in - West 9.2 mph - N/A   Clear
8:00 AM 53.6 °F 48.2 °F 82% 30.06 in 6.2 mi West 9.2 mph - N/A   Partly Cloudy
8:30 AM 55.4 °F 48.2 °F 77% 30.09 in 6.2 mi West 8.1 mph - N/A   Partly Cloudy
9:00 AM 57.2 °F 48.2 °F 72% 30.09 in 6.2 mi West 8.1 mph - N/A   Scattered Clouds
9:30 AM 57.2 °F 48.2 °F 72% 30.09 in 6.2 mi West 9.2 mph - N/A   Scattered Clouds
10:00 AM 59.0 °F 48.2 °F 67% 30.12 in 6.2 mi WNW 9.2 mph - N/A   Scattered Clouds
10:30 AM 59.0 °F 46.4 °F 63% 30.12 in 6.2 mi West 9.2 mph - N/A   Scattered Clouds
11:00 AM 60.8 °F 46.4 °F 59% 30.12 in 6.2 mi WNW 8.1 mph - N/A   Scattered Clouds
11:30 AM 62.6 °F 44.6 °F 52% 30.12 in 6.2 mi WNW 8.1 mph - N/A   Scattered Clouds
12:00 PM 62.6 °F 46.4 °F 55% 30.12 in 6.2 mi West 9.2 mph - N/A   Scattered Clouds
12:30 PM 62.6 °F 42.8 °F 48% 30.12 in 6.2 mi West 6.9 mph - N/A   Scattered Clouds
1:00 PM 64.4 °F 44.6 °F 49% 30.12 in 6.2 mi West 8.1 mph - N/A   Scattered Clouds
1:30 PM 66.2 °F 41.0 °F 40% 30.12 in 6.2 mi West 9.2 mph - N/A   Scattered Clouds
2:00 PM 66.2 °F 42.8 °F 43% 30.12 in 6.2 mi WSW 9.2 mph - N/A   Scattered Clouds
2:30 PM 68.0 °F 42.8 °F 40% 30.12 in 6.2 mi West 9.2 mph - N/A   Scattered Clouds
3:00 PM 68.0 °F 42.8 °F 40% 30.12 in 6.2 mi WSW 9.2 mph - N/A   Scattered Clouds
3:30 PM 68.0 °F 41.0 °F 37% 30.12 in 6.2 mi West 10.4 mph - N/A   Scattered Clouds
4:00 PM 69.8 °F 42.8 °F 38% 30.12 in - West 5.8 mph - N/A   Clear
4:30 PM 69.8 °F 42.8 °F 38% 30.12 in - West 5.8 mph - N/A   Clear
5:00 PM 69.8 °F 41.0 °F 35% 30.12 in - WNW 6.9 mph - N/A   Clear
5:30 PM 68.0 °F 39.2 °F 35% 30.12 in - West 5.8 mph - N/A   Clear
6:00 PM 68.0 °F 41.0 °F 37% 30.12 in - West 5.8 mph - N/A   Clear
6:30 PM 69.8 °F 39.2 °F 33% 30.12 in - West 5.8 mph - N/A   Clear
7:00 PM 71.6 °F 39.2 °F 31% 30.12 in - WNW 6.9 mph - N/A   Clear
7:30 PM 68.0 °F 41.0 °F 37% 30.12 in - North 5.8 mph - N/A   Clear
8:00 PM 69.8 °F 41.0 °F 35% 30.12 in - NNW 5.8 mph - N/A   Clear
8:30 PM 69.8 °F 41.0 °F 35% 30.12 in - NNW 5.8 mph - N/A   Clear
9:00 PM 68.0 °F 41.0 °F 37% 30.12 in - NNW 4.6 mph - N/A   Clear
9:30 PM 66.2 °F 41.0 °F 40% 30.12 in - North 3.5 mph - N/A   Clear
10:00 PM 64.4 °F 41.0 °F 42% 30.12 in - North 3.5 mph - N/A   Clear
10:30 PM 62.6 °F 42.8 °F 48% 30.15 in - NE 4.6 mph - N/A   Clear
11:00 PM 62.6 °F 42.8 °F 48% 30.15 in - East 3.5 mph - N/A   Clear
11:30 PM 60.8 °F 44.6 °F 55% 30.15 in - ENE 3.5 mph - N/A   Clear